Time,TemperatureF,DewpointF,PressureIn,WindDirection,WindDirectionDegrees,WindSpeedMPH,WindSpeedGustMPH,Humidity,HourlyPrecipIn,Conditions,Clouds,dailyrainin,SolarRadiationWatts/m^2,SoftwareType,DateUTC
2013-09-20 00:14:00,48.5,30.2,30.35,SE,137,0.0,0.0,49,0.00,CLR,SKC,0.00,0.0,WeatherDisplay:10.37,2013-09-20 06:14:00,
2013-09-20 09:15:00,55.2,32.5,30.37,South,173,1.0,3.0,42,0.00,CLR,SKC,0.00,367.0,WeatherDisplay:10.37,2013-09-20 15:15:00,
2013-09-20 09:45:00,57.8,30.3,30.36,SW,236,0.0,3.0,35,0.00,CLR,SKC,0.00,459.0,WeatherDisplay:10.37,2013-09-20 15:45:00,
2013-09-20 10:15:00,59.8,31.3,30.36,WNW,297,0.0,3.0,34,0.00,CLR,SKC,0.00,552.0,WeatherDisplay:10.37,2013-09-20 16:15:00,
2013-09-20 10:45:00,61.8,30.8,30.34,NW,314,0.0,4.0,31,0.00,CLR,SKC,0.00,626.0,WeatherDisplay:10.37,2013-09-20 16:45:00,
2013-09-20 11:15:00,63.6,34.0,30.33,NNW,333,0.0,3.0,33,0.00,CLR,SKC,0.00,693.0,WeatherDisplay:10.37,2013-09-20 17:15:00,
2013-09-20 11:45:00,66.2,34.6,30.30,NW,309,1.0,3.0,31,0.00,CLR,SKC,0.00,747.0,WeatherDisplay:10.37,2013-09-20 17:45:00,
2013-09-20 12:15:00,69.1,37.1,30.28,NNE,32,1.0,5.0,31,0.00,CLR,SKC,0.00,788.0,WeatherDisplay:10.37,2013-09-20 18:15:00,
2013-09-20 12:45:00,71.6,35.8,30.27,West,276,1.0,3.0,27,0.00,CLR,SKC,0.00,810.0,WeatherDisplay:10.37,2013-09-20 18:45:00,
2013-09-20 13:15:00,72.1,35.3,30.25,East,94,1.0,3.0,26,0.00,CLR,SKC,0.00,817.0,WeatherDisplay:10.37,2013-09-20 19:15:00,
2013-09-20 13:45:00,74.8,35.6,30.23,SW,233,1.0,3.0,24,0.00,CLR,SKC,0.00,809.0,WeatherDisplay:10.37,2013-09-20 19:45:00,
2013-09-20 14:15:00,75.9,36.5,30.21,South,181,2.0,5.0,24,0.00,CLR,SKC,0.00,784.0,WeatherDisplay:10.37,2013-09-20 20:15:00,
2013-09-20 14:45:00,77.2,36.5,30.19,South,191,2.0,6.0,23,0.00,CLR,SKC,0.00,745.0,WeatherDisplay:10.37,2013-09-20 20:45:00,
2013-09-20 15:15:00,78.3,36.3,30.17,SW,216,5.0,13.0,22,0.00,CLR,SKC,0.00,689.0,WeatherDisplay:10.37,2013-09-20 21:15:00,
2013-09-20 15:45:00,77.7,35.8,30.16,SSW,195,2.0,9.0,22,0.00,CLR,SKC,0.00,621.0,WeatherDisplay:10.37,2013-09-20 21:45:00,
2013-09-20 16:15:00,78.3,36.3,30.15,SSW,197,6.0,12.0,22,0.00,CLR,SKC,0.00,548.0,WeatherDisplay:10.37,2013-09-20 22:15:00,
2013-09-20 16:45:00,77.9,36.0,30.14,SE,143,8.0,13.0,22,0.00,CLR,SKC,0.00,455.0,WeatherDisplay:10.37,2013-09-20 22:45:00,
2013-09-20 17:15:00,76.9,35.1,30.12,SE,124,9.0,17.0,22,0.00,CLR,SKC,0.00,364.0,WeatherDisplay:10.37,2013-09-20 23:15:00,
2013-09-20 17:45:00,76.6,36.0,30.12,SE,127,7.0,15.0,23,0.00,CLR,SKC,0.00,265.0,WeatherDisplay:10.37,2013-09-20 23:45:00,
2013-09-20 18:15:00,75.2,34.8,30.10,SE,126,8.0,17.0,23,0.00,CLR,SKC,0.00,137.0,WeatherDisplay:10.37,2013-09-21 00:15:00,
2013-09-20 18:45:00,74.1,33.9,30.10,SE,135,12.0,20.0,23,0.00,BKN,SKC,0.00,39.0,WeatherDisplay:10.37,2013-09-21 00:45:00,
2013-09-20 19:15:00,72.1,33.3,30.10,SE,132,8.0,13.0,24,0.00,CLR,SKC,0.00,9.0,WeatherDisplay:10.37,2013-09-21 01:15:00,
2013-09-20 19:45:00,71.3,32.6,30.10,SE,144,8.0,14.0,24,0.00,OVC,SKC,0.00,0.0,WeatherDisplay:10.37,2013-09-21 01:45:00,
2013-09-20 20:15:00,70.6,33.1,30.11,SE,143,8.0,15.0,25,0.00,CLR,SKC,0.00,0.0,WeatherDisplay:10.37,2013-09-21 02:15:00,
2013-09-20 20:45:00,70.2,33.7,30.12,SE,141,3.0,12.0,26,0.00,CLR,SKC,0.00,0.0,WeatherDisplay:10.37,2013-09-21 02:45:00,
2013-09-20 21:15:00,71.5,32.8,30.12,SSE,150,9.0,15.0,24,0.00,CLR,SKC,0.00,0.0,WeatherDisplay:10.37,2013-09-21 03:15:00,
2013-09-20 21:45:00,70.5,33.0,30.12,SE,136,3.0,13.0,25,0.00,CLR,SKC,0.00,0.0,WeatherDisplay:10.37,2013-09-21 03:45:00,
2013-09-20 22:15:00,67.4,33.2,30.12,SSW,210,0.0,1.0,28,0.00,CLR,SKC,0.00,0.0,WeatherDisplay:10.37,2013-09-21 04:15:00,
2013-09-20 22:45:00,66.0,33.6,30.13,SW,236,0.0,1.0,30,0.00,CLR,SKC,0.00,0.0,WeatherDisplay:10.37,2013-09-21 04:45:00,
2013-09-20 23:15:00,63.2,33.6,30.13,SW,236,0.0,1.0,33,0.00,CLR,SKC,0.00,0.0,WeatherDisplay:10.37,2013-09-21 05:15:00,
2013-09-20 23:45:00,61.4,34.2,30.14,SW,236,0.0,2.0,36,0.00,CLR,SKC,0.00,0.0,WeatherDisplay:10.37,2013-09-21 05:45:00,